Temperature
21 20 19 20 25 28 28 28 29 28 28 27 26 26 26 25 25 24 21 21 20 20 19 19 19 19 19 19 19 19 19 19 19 19 19 19 19 19 19 19 19 19 19 19 19 19 19 19 18
20 20 20 23 28 28 28 28 28 28 27 26 26 26 26 25 23 22 21 20 20 20 19 19 19 19 19 19 19 19 19 19 19 19 19 19 19 19 19 19 19 19 19 19 19 19 19 19 18
20 20 23 28 29 29 28 28 28 27 26 26 26 26 25 24 23 22 21 20 20 20 19 19 19 19 19 19 19 19 19 19 19 19 19 19 19 19 19 19 19 19 19 19 19 19 19 19 18
20 22 25 29 29 29 29 28 28 28 27 26 26 26 24 22 22 21 20 20 20 20 20 19 19 19 19 19 19 19 19 19 19 19 19 19 19 19 19 19 19 19 19 19 19 19 18 19 18
21 26 29 30 29 29 29 28 28 28 28 26 26 26 24 21 21 21 20 20 20 20 20 19 19 19 19 19 19 19 19 19 19 19 19 19 19 19 19 19 19 19 19 19 19 18 18 18 18
25 29 30 29 29 29 29 28 28 28 27 26 26 26 23 21 21 21 21 21 21 20 20 19 20 20 19 19 19 19 19 19 19 19 19 19 19 19 19 19 19 19 19 18 18 18 18 18 18
27 30 30 30 29 29 29 28 28 28 27 27 26 26 24 22 21 21 21 21 20 20 20 20 20 20 20 19 19 19 19 19 19 19 19 19 19 19 19 19 19 19 19 18 18 18 18 18 18
26 30 31 30 30 29 29 28 27 28 27 26 26 26 24 22 21 21 21 21 21 20 20 20 20 20 19 19 19 19 19 19 19 19 19 19 19 19 19 19 19 19 19 18 18 18 18 18 18
26 31 30 30 30 30 29 29 27 27 26 26 25 25 23 22 21 22 21 21 21 20 20 20 20 20 20 19 19 19 19 19 19 19 19 19 19 18 18 18 19 19 19 19 18 18 18 18 18
29 31 30 31 31 30 29 29 28 28 27 26 25 23 22 22 22 22 22 22 21 20 20 20 20 20 20 19 19 19 19 19 19 18 18 19 19 18 18 19 19 19 19 19 18 18 18 18 18
30 30 31 30 30 29 29 29 28 28 28 26 25 24 22 22 22 22 22 22 21 21 20 20 20 19 20 19 19 19 19 19 19 19 18 19 19 19 19 18 18 18 18 18 18 18 18 18 18
30 30 30 30 29 29 29 29 28 28 27 26 25 24 23 23 23 22 22 21 21 20 20 20 20 19 19 19 19 19 19 19 19 19 19 18 18 19 18 18 18 18 18 18 18 18 18 18 18
30 30 29 29 29 29 29 29 28 27 26 25 24 23 23 23 23 22 22 21 21 20 20 20 19 19 19 19 19 19 19 19 19 19 18 18 19 18 18 18 18 18 18 18 18 18 18 18 18
30 30 30 29 29 29 29 29 28 26 25 24 24 24 23 23 23 22 22 21 21 20 20 20 19 19 19 19 19 19 19 19 19 19 19 18 18 18 18 18 18 18 18 18 18 18 18 18 18
30 31 31 30 30 29 29 29 28 26 25 25 24 24 23 23 22 22 22 21 21 20 20 20 19 19 19 19 19 19 19 19 19 19 19 18 18 18 18 18 18 18 18 18 18 18 18 18 18
31 31 31 30 30 29 30 29 28 26 26 26 25 24 23 22 22 22 21 21 21 20 20 20 20 19 19 19 19 19 19 19 19 19 19 18 18 18 18 18 18 18 18 18 18 18 18 18 18
31 31 31 30 30 30 30 29 28 26 26 26 25 25 24 23 22 22 21 21 21 20 20 20 20 19 19 19 19 19 19 19 19 19 19 18 18 18 18 18 18 18 18 18 18 18 18 18 18
31 31 31 30 31 30 30 29 29 27 27 27 26 25 24 24 23 22 21 21 21 20 20 20 20 20 19 19 19 19 19 19 19 19 19 19 18 18 18 18 18 18 18 18 18 18 18 18 18
31 31 30 30 30 30 30 29 29 28 27 27 26 26 25 24 23 22 21 21 21 20 20 20 20 20 20 19 19 19 19 19 19 18 18 18 18 18 18 18 18 18 18 18 18 18 18 18 18
31 31 31 30 30 30 29 29 29 28 28 27 26 26 25 24 23 22 21 21 21 20 20 20 20 20 20 19 19 19 19 19 19 19 18 18 18 18 18 18 18 18 18 18 18 18 18 18 18
31 31 31 30 30 30 30 29 29 29 27 27 26 26 25 24 23 22 22 21 21 20 20 20 20 20 20 19 19 19 19 19 19 19 18 18 18 18 18 18 18 18 18 18 18 18 18 18 18
30 31 31 30 30 30 30 30 29 29 28 27 26 26 25 25 24 23 22 21 21 20 20 20 20 20 20 20 19 19 19 19 19 19 18 18 18 18 18 18 18 18 18 18 18 18 18 18 18
31 31 30 30 30 30 30 30 30 29 28 28 27 26 25 24 24 23 22 21 21 20 20 20 20 20 20 20 19 19 19 18 18 18 18 18 18 18 18 18 18 18 18 18 18 18 18 18 18
30 30 30 30 30 29 30 30 30 30 29 28 27 26 25 24 23 23 22 21 21 20 20 20 20 20 20 19 19 19 18 18 18 18 18 18 18 18 18 18 18 18 18 18 18 18 18 18 18
30 30 29 29 29 30 30 30 30 29 29 28 27 26 24 24 23 22 22 21 21 20 20 20 20 20 20 19 19 19 18 18 18 18 18 18 18 18 18 18 17 18 18 18 18 18 18 17 17
30 31 29 29 29 30 30 30 30 29 28 27 26 26 24 24 23 22 21 21 20 20 20 19 19 19 19 19 19 18 18 18 18 18 18 17 18 17 17 17 17 17 17 17 18 17 17 17 17
31 31 31 30 30 30 30 30 29 28 28 27 26 25 24 24 23 22 21 21 20 20 19 19 19 19 19 19 18 18 18 18 18 18 17 17 17 17 17 17 17 17 17 17 17 17 17 17 17
31 31 30 30 28 29 30 30 30 29 28 28 27 25 24 23 23 22 21 21 20 20 19 19 19 19 19 18 18 18 18 18 18 17 17 17 17 17 17 17 17 17 17 17 17 17 17 17 17
30 30 30 30 30 29 29 30 30 29 28 28 27 25 24 23 23 22 21 20 20 20 19 18 18 18 18 18 18 18 18 17 17 17 17 17 17 16 17 16 16 16 16 16 17 16 16 16 16
31 31 30 29 29 29 30 30 29 29 29 27 26 25 23 23 22 21 21 20 20 19 19 18 18 18 18 18 18 18 17 17 17 17 17 17 16 16 16 16 16 16 16 16 16 16 16 16 16
Wind_Speed
12 10 5 4 4 3 9 8 8 7 7 8 8 7 8 9 7 6 4 5 5 4 5 5 6 6 6 5 5 5 5 5 5 5 5 5 4 5 5 6 7 7 9 11 12 13 13 13 14
9 6 5 4 2 7 9 8 9 9 7 5 6 7 8 9 7 5 4 4 4 5 5 6 8 7 7 7 6 6 7 6 5 5 5 5 4 4 5 6 6 8 10 11 11 12 12 12 14
7 6 4 2 6 9 9 8 8 7 6 4 5 6 7 7 6 4 5 4 4 6 6 8 8 7 7 7 7 6 6 6 6 6 5 5 5 5 6 6 7 8 9 10 11 11 11 11 12
4 4 4 2 10 11 8 7 6 6 6 5 5 7 7 7 5 6 6 5 5 6 6 9 8 7 7 7 7 7 6 6 7 6 6 6 6 6 6 7 8 8 9 9 10 11 11 11 12
4 4 1 8 11 9 8 6 5 5 6 6 6 8 7 7 7 7 6 5 5 6 6 8 8 7 7 6 7 7 8 8 8 8 7 7 6 6 6 7 8 8 9 10 11 11 11 10 10
3 3 4 9 10 8 7 5 5 6 7 7 6 8 7 6 6 6 6 5 6 6 6 7 7 5 5 6 7 8 8 9 8 9 8 7 7 7 7 8 8 8 9 10 11 12 10 10 10
4 3 7 9 9 8 7 5 6 6 6 6 4 6 6 6 6 5 6 6 6 6 5 5 6 5 5 6 7 7 8 8 8 8 8 8 8 9 8 8 8 8 9 11 11 11 11 10 10
4 2 6 7 8 8 6 5 5 5 6 5 3 5 6 7 6 6 6 6 6 6 5 5 6 6 5 7 8 7 7 8 7 8 7 7 8 9 9 10 11 11 10 12 12 11 10 9 9
5 1 7 8 7 7 5 5 5 5 6 6 6 7 9 9 6 6 6 6 6 6 6 5 6 6 6 6 7 6 7 7 5 7 7 5 5 7 8 12 13 13 12 12 12 10 9 9 10
3 5 8 6 6 5 5 5 4 4 5 6 8 9 10 8 6 6 6 6 6 6 6 6 7 6 5 5 5 4 6 6 6 6 6 5 6 5 7 11 12 11 12 11 11 9 8 6 7
2 5 5 5 4 4 5 6 4 3 4 4 7 10 9 8 6 5 6 6 6 6 6 7 6 5 5 4 4 4 4 5 6 6 6 5 4 4 5 5 7 8 8 7 9 6 5 5 5
1 3 3 4 4 3 4 5 5 6 7 7 9 10 9 7 6 5 5 5 5 5 6 6 6 6 5 5 4 4 4 4 5 6 5 5 4 4 5 4 5 5 5 6 5 4 5 5 5
2 3 4 4 4 5 5 5 5 7 7 9 10 10 8 6 6 5 5 4 4 4 5 6 5 5 5 5 4 5 5 5 6 5 6 6 5 5 5 5 5 5 5 5 4 4 5 4 4
2 2 3 4 5 5 5 6 5 6 7 9 9 8 7 6 5 5 4 3 3 3 4 4 4 5 4 4 4 4 4 4 5 6 6 6 5 5 5 5 5 4 5 5 4 5 4 4 4
2 3 4 4 3 3 3 4 4 5 7 8 8 7 6 5 5 4 3 3 3 3 3 3 3 4 4 3 3 4 4 5 5 5 6 5 5 5 4 4 4 4 5 5 4 4 4 4 4
5 4 3 4 2 2 4 2 5 6 6 6 7 7 6 5 4 4 3 2 2 3 3 2 2 4 4 3 3 3 4 5 4 4 5 5 5 4 3 3 4 3 4 4 4 4 3 3 3
5 2 1 4 2 2 3 1 4 5 6 6 6 7 7 6 5 4 3 3 3 3 3 3 2 3 3 4 3 3 4 4 4 4 4 5 4 4 3 3 3 3 3 3 3 3 2 3 2
3 2 1 1 2 3 3 1 3 5 5 5 6 6 6 6 5 5 4 3 3 3 3 3 3 3 2 3 2 2 3 3 3 3 4 4 3 3 2 3 2 2 3 3 3 3 2 1 1
4 4 3 1 0 2 2 2 3 5 6 5 5 6 6 6 6 5 5 4 4 4 4 3 2 3 2 2 1 2 2 2 3 3 4 4 3 3 2 2 3 2 3 2 2 2 2 1 1
6 6 4 2 2 3 3 2 2 5 6 5 6 6 6 6 6 6 5 5 5 4 4 3 3 3 3 2 1 1 1 1 2 2 3 3 3 2 2 2 1 2 2 2 2 1 0 1 1
8 6 4 3 3 5 5 5 4 5 6 6 5 6 6 7 7 7 6 6 5 5 4 3 3 3 3 3 2 2 2 1 2 2 2 2 2 2 2 2 1 1 1 2 1 1 1 0 1
7 4 4 4 6 4 5 4 4 6 6 6 6 6 6 7 7 7 7 6 6 5 4 4 3 3 3 3 2 2 1 1 1 1 2 2 2 2 2 1 1 0 1 1 1 1 1 2 1
4 2 4 6 7 6 6 6 2 6 5 6 6 6 6 6 6 7 7 7 6 5 5 4 4 3 3 3 3 2 1 1 1 1 2 1 2 1 1 1 1 0 0 1 1 1 2 2 2
4 5 5 7 7 7 5 6 2 3 3 5 6 6 6 6 6 6 7 7 6 6 6 5 5 4 4 4 3 2 1 1 0 0 1 1 1 1 1 1 1 0 1 0 1 1 1 2 2
8 8 6 6 6 4 2 5 2 2 1 3 6 7 6 6 6 7 7 7 6 6 5 5 5 5 4 4 3 3 2 2 2 2 1 1 0 1 1 1 1 1 0 0 0 0 1 1 1
10 10 7 5 5 3 4 4 1 3 2 3 5 6 7 6 6 7 7 6 6 5 5 5 5 5 5 4 4 3 3 2 2 2 1 1 0 1 1 0 0 0 0 1 0 1 1 1 1
8 9 8 7 8 7 3 2 3 4 5 6 6 6 7 7 7 7 7 6 6 5 5 4 4 4 4 4 4 3 2 2 1 1 1 0 0 0 1 0 0 0 0 1 1 1 1 2 2
7 6 6 7 6 7 5 5 3 5 5 6 7 7 7 7 7 7 6 6 5 5 4 4 4 4 4 4 4 3 3 2 2 2 1 0 0 1 1 1 1 1 1 1 1 2 1 1 1
8 8 7 6 7 8 6 2 2 2 4 6 7 7 7 7 7 7 6 6 5 4 4 4 4 4 4 4 3 3 2 2 2 1 1 1 1 1 1 1 1 0 1 1 2 2 2 2 1
9 9 10 8 7 8 9 2 4 2 3 5 6 6 7 7 7 7 7 6 5 4 4 4 4 4 3 3 3 3 2 2 2 1 1 1 1 1 1 1 1 1 1 1 1 2 2 2 2
Wind_Direction
176 177 197 230 236 87 62 53 49 55 55 56 50 45 49 39 32 61 55 50 46 54 66 83 66 56 51 45 48 68 88 107 107 108 115 115 118 120 124 131 137 142 148 150 152 154 158 159 155
168 177 221 243 338 71 65 53 54 53 70 77 64 55 59 58 52 75 72 56 48 53 60 68 68 58 53 50 55 74 89 99 102 106 107 109 106 114 123 125 128 137 147 151 150 152 154 155 155
176 216 260 276 46 51 60 58 63 69 72 56 61 51 50 54 56 62 67 74 64 60 62 70 62 57 56 54 55 73 85 91 94 96 98 98 95 100 119 115 122 131 141 145 148 149 149 149 152
209 230 237 54 63 55 59 63 67 76 74 59 69 74 68 47 43 69 83 77 72 72 71 76 63 56 56 55 53 67 82 90 91 93 91 91 93 99 105 114 119 123 131 134 141 140 141 139 139
244 262 128 75 67 61 62 57 58 64 67 69 69 79 74 59 70 83 90 82 73 74 73 81 71 57 52 49 53 62 75 82 86 91 89 87 88 96 99 108 115 118 122 124 126 133 131 131 138
267 268 66 70 70 68 64 54 61 71 79 79 77 82 76 80 86 84 81 77 73 73 74 83 93 69 59 56 57 64 75 78 82 85 85 82 76 77 97 115 120 121 122 121 118 117 119 123 131
308 13 62 69 74 71 55 50 56 71 76 70 71 81 93 92 88 88 83 77 73 73 69 69 86 91 93 78 67 69 77 80 83 82 80 78 75 75 93 112 115 115 120 119 118 119 122 124 126
300 314 74 67 67 67 62 65 61 60 72 76 59 78 99 106 108 100 95 85 74 69 68 63 65 73 79 88 88 76 80 80 80 78 76 84 90 90 95 101 102 108 114 118 116 118 122 125 130
275 14 64 56 56 72 76 74 71 74 88 78 64 75 103 116 113 106 96 87 75 69 71 68 65 69 70 72 87 95 100 90 89 88 80 81 81 86 94 86 93 100 107 112 115 118 121 124 132
294 50 58 49 47 73 81 71 80 101 92 90 93 98 113 122 117 101 90 84 78 71 69 66 64 62 65 72 79 77 78 77 68 62 65 70 75 76 86 96 100 103 109 114 117 122 130 140 126
353 39 54 63 63 73 89 81 77 77 73 86 118 124 128 125 119 101 86 78 74 74 71 69 71 66 59 67 73 71 70 71 72 67 70 74 74 82 80 88 102 104 108 106 116 124 114 107 104
41 48 50 70 79 85 84 87 70 58 63 90 120 129 132 133 119 100 88 80 76 69 69 66 66 64 52 50 70 76 75 73 72 70 59 72 70 66 70 73 81 88 91 88 88 88 87 90 101
109 85 83 92 101 95 96 87 79 78 86 104 121 130 132 132 122 105 93 86 83 81 75 70 67 65 60 58 53 67 67 69 77 71 66 62 70 69 71 74 75 82 89 95 91 87 84 82 84
80 110 107 108 116 117 106 97 96 95 112 119 128 134 136 132 125 112 108 101 93 84 78 77 77 80 74 73 67 64 71 72 65 68 64 62 68 70 74 85 82 84 87 84 91 95 93 83 77
162 149 132 115 124 131 148 111 95 119 130 133 139 141 143 146 140 124 115 109 106 103 89 84 94 88 78 74 71 73 69 73 68 68 68 64 73 76 77 83 90 84 96 105 103 97 91 93 85
206 208 161 124 150 162 234 101 114 143 151 147 151 151 157 162 158 144 133 121 113 105 102 91 94 98 95 78 60 61 58 66 67 66 72 68 70 77 77 83 86 93 103 106 108 104 91 84 83
212 227 145 135 169 193 236 101 129 159 167 163 167 166 168 168 170 160 153 145 129 121 119 114 98 95 95 93 87 76 68 62 62 67 70 72 74 81 82 80 84 107 103 105 106 97 100 103 102
262 272 263 188 154 210 220 177 150 175 185 177 175 175 175 174 175 169 167 159 147 138 132 124 120 108 115 113 106 87 78 80 68 67 69 68 77 76 73 99 95 99 101 97 90 97 89 113 123
282 271 281 302 169 233 232 224 189 183 192 189 183 180 181 180 172 172 171 169 160 151 149 145 131 124 128 124 120 101 90 85 84 75 70 73 74 81 62 82 99 94 96 107 128 132 148 145 130
247 250 249 223 201 242 247 252 201 188 198 200 195 187 187 181 172 174 177 173 170 165 165 160 153 144 149 133 126 112 80 83 84 79 82 74 77 85 103 87 109 89 115 118 117 143 147 136 179
240 255 265 265 216 221 246 223 188 181 194 197 204 201 194 190 183 178 178 178 173 173 175 168 159 153 155 155 156 139 137 143 117 102 97 79 84 90 80 100 77 92 146 122 161 198 218 228 212
240 256 258 242 241 241 251 267 179 179 187 193 197 199 197 193 186 178 175 178 176 173 168 164 160 157 158 171 169 168 159 128 84 85 88 89 91 92 101 108 103 58 61 106 233 91 275 269 264
254 218 236 243 252 262 241 268 176 171 198 197 195 196 198 194 185 179 176 170 171 167 162 156 155 154 158 168 166 189 181 159 124 96 87 76 80 77 72 71 83 78 51 32 344 337 300 285 297
198 198 215 231 244 252 250 263 243 176 210 196 187 185 188 183 178 175 167 163 167 168 169 161 158 156 158 165 167 182 179 186 143 100 112 144 115 97 76 67 63 120 40 50 309 308 295 312 321
214 231 232 228 229 244 189 253 275 95 161 193 184 179 172 170 171 170 166 166 169 171 174 167 164 165 164 166 169 179 189 186 194 231 199 246 147 102 71 57 69 44 17 261 271 281 313 282 274
221 240 253 268 266 247 193 247 130 122 153 173 173 172 167 165 166 166 165 165 168 171 174 170 169 168 168 172 173 179 191 203 202 226 247 238 275 65 62 74 101 16 302 274 241 248 248 247 251
223 233 259 268 272 268 239 219 189 171 178 175 170 167 166 164 162 163 162 159 162 166 165 168 169 170 175 177 175 182 197 219 207 201 231 231 298 176 118 231 217 242 261 258 233 255 250 236 237
246 236 233 251 265 265 244 242 229 177 178 174 178 175 166 164 159 156 156 156 161 159 156 161 167 173 178 181 191 183 192 197 197 213 211 331 334 331 253 251 240 245 247 239 223 210 212 212 211
202 214 233 250 263 272 271 250 83 165 181 181 179 174 171 169 162 157 154 153 152 153 156 164 165 168 178 187 191 188 189 183 189 196 202 185 219 233 238 243 245 275 284 254 227 215 195 202 206
231 233 229 241 246 258 276 269 99 135 177 175 169 163 164 168 164 159 155 155 158 159 163 168 169 172 180 183 188 189 190 189 199 188 202 212 218 222 222 233 238 237 242 244 223 219 207 207 210
Height
1503 1503 1504 1506 1500 1494 1497 1493 1489 1491 1493 1497 1497 1496 1496 1498 1500 1508 1508 1505 1504 1503 1501 1499 1497 1495 1492 1489 1486 1484 1483 1485 1487 1489 1490 1491 1491 1490 1490 1490 1490 1490 1491 1492 1494 1497 1500 1504 1507
1504 1504 1506 1504 1493 1499 1500 1493 1493 1494 1497 1499 1499 1499 1498 1502 1505 1507 1507 1507 1506 1505 1503 1501 1498 1496 1494 1491 1488 1487 1486 1488 1489 1490 1491 1491 1491 1491 1490 1490 1490 1491 1492 1493 1496 1498 1501 1505 1507
1505 1505 1506 1496 1493 1498 1500 1495 1496 1498 1500 1500 1500 1501 1503 1506 1508 1509 1509 1508 1507 1506 1504 1502 1500 1498 1496 1494 1491 1490 1489 1490 1491 1492 1492 1492 1492 1490 1490 1490 1491 1491 1493 1495 1497 1500 1503 1505 1508
1507 1507 1503 1494 1497 1495 1495 1496 1497 1498 1500 1501 1501 1503 1507 1511 1511 1511 1510 1509 1508 1507 1506 1504 1501 1500 1498 1496 1494 1493 1492 1493 1493 1494 1494 1494 1493 1492 1491 1491 1492 1493 1495 1496 1499 1501 1504 1506 1509
1507 1503 1494 1494 1496 1495 1496 1498 1498 1498 1500 1502 1502 1505 1509 1513 1512 1512 1511 1510 1510 1509 1507 1505 1503 1501 1500 1498 1497 1495 1495 1495 1495 1496 1496 1496 1494 1493 1492 1492 1494 1495 1496 1498 1500 1502 1505 1508 1510
1506 1497 1494 1499 1498 1496 1497 1499 1499 1499 1502 1504 1504 1506 1511 1514 1513 1513 1513 1512 1511 1510 1509 1506 1504 1503 1501 1501 1500 1499 1499 1498 1498 1499 1499 1497 1496 1492 1490 1491 1494 1496 1498 1500 1502 1504 1507 1509 1511
1505 1494 1495 1495 1498 1498 1500 1501 1500 1501 1503 1505 1506 1507 1512 1514 1515 1514 1514 1513 1513 1511 1510 1508 1507 1504 1503 1503 1502 1502 1502 1502 1502 1502 1501 1500 1498 1493 1490 1491 1493 1495 1498 1501 1504 1506 1508 1509 1512
1505 1496 1493 1494 1497 1500 1501 1502 1504 1503 1506 1508 1508 1508 1512 1516 1515 1516 1515 1515 1514 1512 1511 1510 1509 1507 1507 1506 1505 1505 1505 1505 1505 1505 1504 1503 1501 1499 1496 1495 1495 1496 1499 1502 1506 1509 1510 1511 1512
1505 1495 1497 1496 1497 1499 1502 1502 1505 1507 1508 1509 1510 1511 1514 1516 1516 1517 1517 1516 1515 1514 1513 1512 1511 1510 1509 1509 1508 1508 1508 1507 1507 1508 1507 1506 1506 1505 1504 1503 1501 1501 1503 1506 1509 1511 1513 1513 1513
1502 1497 1498 1497 1497 1498 1502 1503 1505 1506 1507 1510 1513 1515 1516 1517 1518 1518 1518 1517 1517 1516 1515 1514 1513 1512 1512 1511 1511 1511 1512 1511 1511 1510 1510 1510 1509 1509 1509 1508 1507 1508 1509 1510 1513 1514 1516 1517 1518
1501 1499 1498 1499 1500 1501 1502 1504 1506 1505 1506 1510 1513 1516 1517 1519 1520 1520 1520 1519 1519 1518 1518 1517 1516 1515 1514 1514 1514 1514 1514 1514 1514 1513 1513 1512 1512 1513 1513 1513 1513 1513 1514 1515 1517 1518 1520 1521 1522
1501 1501 1501 1501 1503 1503 1503 1505 1506 1507 1510 1512 1514 1517 1519 1520 1521 1521 1521 1521 1520 1520 1519 1519 1518 1517 1516 1516 1516 1517 1517 1517 1517 1516 1516 1515 1515 1515 1515 1516 1516 1517 1517 1518 1520 1521 1523 1524 1525
1501 1502 1503 1503 1504 1504 1505 1506 1508 1511 1513 1514 1516 1518 1520 1521 1522 1523 1523 1523 1522 1522 1522 1521 1520 1519 1518 1518 1518 1519 1519 1520 1520 1519 1518 1518 1518 1518 1518 1519 1519 1520 1521 1521 1522 1524 1525 1526 1527
1502 1502 1503 1503 1504 1505 1505 1507 1509 1512 1515 1516 1518 1519 1521 1522 1523 1524 1524 1524 1524 1524 1524 1523 1523 1522 1521 1521 1520 1521 1522 1521 1522 1522 1521 1521 1521 1521 1521 1522 1522 1523 1524 1524 1525 1526 1526 1527 1528
1503 1501 1501 1502 1503 1505 1505 1507 1509 1513 1515 1517 1518 1520 1522 1523 1524 1524 1525 1525 1525 1525 1525 1525 1524 1524 1523 1523 1524 1524 1524 1524 1524 1524 1524 1523 1523 1523 1523 1524 1524 1525 1526 1526 1527 1528 1529 1529 1530
1500 1498 1501 1502 1502 1504 1505 1509 1509 1513 1514 1516 1518 1520 1522 1523 1524 1525 1525 1526 1526 1526 1526 1526 1526 1525 1525 1525 1525 1526 1526 1526 1526 1526 1526 1525 1525 1525 1525 1526 1526 1527 1528 1528 1529 1530 1530 1531 1531
1497 1500 1501 1501 1501 1502 1502 1506 1509 1512 1513 1515 1517 1519 1521 1523 1524 1525 1526 1526 1526 1526 1526 1526 1526 1527 1527 1527 1527 1527 1527 1527 1527 1527 1527 1527 1527 1527 1527 1527 1528 1528 1529 1530 1530 1531 1531 1531 1532
1502 1500 1500 1501 1499 1501 1502 1504 1507 1511 1512 1513 1516 1518 1520 1522 1524 1525 1526 1526 1526 1526 1526 1527 1527 1527 1527 1528 1528 1528 1529 1529 1529 1529 1528 1528 1528 1528 1529 1529 1528 1530 1530 1530 1530 1530 1531 1532 1532
1497 1500 1502 1500 1499 1501 1502 1503 1504 1508 1510 1511 1514 1516 1519 1521 1523 1524 1525 1526 1526 1526 1526 1527 1527 1527 1527 1528 1529 1529 1530 1530 1530 1530 1529 1529 1529 1529 1529 1530 1530 1530 1531 1530 1531 1531 1531 1532 1532
1498 1500 1500 1500 1499 1501 1502 1502 1501 1505 1508 1510 1512 1515 1517 1520 1522 1523 1524 1525 1525 1526 1526 1527 1527 1527 1528 1528 1529 1529 1530 1530 1530 1530 1530 1530 1530 1530 1531 1530 1531 1531 1530 1530 1531 1531 1532 1532 1532
1497 1498 1498 1500 1499 1498 1500 1502 1500 1503 1506 1509 1511 1513 1515 1517 1520 1522 1523 1524 1525 1525 1526 1527 1527 1527 1528 1528 1529 1530 1530 1531 1531 1531 1531 1530 1530 1530 1530 1530 1531 1531 1531 1531 1530 1531 1531 1532 1532
1499 1494 1496 1499 1501 1499 1499 1506 1499 1499 1503 1506 1509 1511 1513 1515 1517 1520 1521 1522 1524 1524 1525 1526 1526 1527 1527 1528 1529 1530 1530 1531 1531 1531 1531 1531 1531 1531 1531 1531 1530 1531 1531 1530 1531 1531 1531 1531 1531
1494 1494 1495 1496 1498 1499 1497 1501 1496 1496 1500 1502 1505 1508 1511 1513 1515 1518 1520 1521 1522 1524 1525 1525 1526 1526 1527 1527 1528 1529 1530 1531 1531 1531 1530 1530 1530 1530 1531 1530 1530 1530 1530 1530 1529 1530 1530 1530 1531
1493 1496 1496 1495 1495 1508 1498 1502 1499 1492 1496 1498 1502 1506 1509 1511 1514 1516 1518 1520 1521 1523 1524 1525 1525 1526 1526 1527 1527 1528 1529 1529 1530 1530 1530 1530 1530 1530 1530 1530 1529 1529 1529 1529 1528 1528 1529 1529 1528
1493 1498 1507 1510 1509 1505 1494 1499 1497 1491 1493 1496 1500 1504 1507 1510 1512 1515 1517 1519 1520 1522 1523 1524 1524 1525 1525 1526 1527 1527 1528 1528 1529 1529 1530 1530 1530 1529 1528 1529 1528 1528 1527 1527 1527 1527 1527 1527 1527
1490 1492 1507 1516 1511 1499 1496 1497 1490 1490 1494 1497 1500 1503 1506 1509 1511 1513 1516 1517 1519 1521 1522 1523 1523 1524 1525 1525 1525 1526 1526 1528 1528 1528 1528 1529 1529 1528 1527 1527 1527 1526 1526 1526 1525 1526 1526 1526 1526
1489 1489 1485 1494 1497 1501 1493 1491 1489 1490 1493 1496 1499 1502 1505 1507 1510 1512 1515 1516 1518 1520 1520 1521 1522 1523 1523 1524 1524 1525 1525 1526 1526 1526 1526 1527 1526 1526 1526 1525 1525 1524 1524 1524 1523 1524 1523 1524 1524
1483 1482 1488 1494 1510 1510 1499 1494 1489 1489 1491 1493 1497 1500 1504 1506 1509 1511 1514 1515 1517 1518 1519 1520 1521 1521 1522 1523 1523 1524 1524 1524 1524 1525 1525 1525 1524 1524 1524 1523 1523 1522 1522 1522 1522 1522 1522 1522 1522
1487 1487 1488 1489 1491 1504 1505 1494 1480 1484 1488 1491 1495 1499 1502 1505 1508 1510 1512 1514 1516 1517 1518 1519 1520 1520 1521 1521 1522 1522 1522 1523 1523 1523 1523 1523 1523 1522 1522 1521 1521 1520 1520 1520 1519 1520 1520 1520 1520
1478 1480 1484 1495 1498 1494 1495 1492 1480 1483 1486 1490 1494 1499 1502 1504 1507 1509 1511 1513 1515 1516 1517 1518 1518 1519 1520 1520 1520 1521 1521 1521 1521 1522 1522 1521 1521 1521 1520 1519 1519 1518 1518 1518 1518 1518 1518 1518 1518